Weather History for LEVD - December, 2013

Change the Weather History Date:

Thursday, December 26, 2013

  Actual Average Record
Temperature  
Mean Temperature 38 °F -  
Max Temperature 43 °F - - ()
Min Temperature 32 °F - - ()
Degree Days  
Heating Degree Days 28    
Moisture  
Dew Point 37 °F    
Average Humidity 91    
Maximum Humidity 100    
Minimum Humidity 72    
Precipitation  
Precipitation 0.00 in - - ()
Sea Level Pressure  
Sea Level Pressure 29.96 in    
Wind  
Wind Speed 15 mph ()    
Max Wind Speed 23 mph    
Max Gust Speed -    
Visibility 7.0 miles    
Events      
T = Trace of Precipitation, MM = Missing Value Source: Averaged Metar Reports

Daily Weather History Graph

Daily Weather History Graph

Search for Another Location

Airport or City:

Trip Planner

Search our weather history database for the weather conditions in past years. The results will help you decide how hot, cold, wet, or windy it might be!

Date:

Astronomy

Dec. 26, 2013 Rise Set
Actual Time 8:45 AM CET 5:54 PM CET
Civil Twilight 8:13 AM CET 6:26 PM CET
Nautical Twilight 7:38 AM CET 7:01 PM CET
Astronomical Twilight 7:04 AM CET 7:35 PM CET
Moon 1:55 AM CET (12/26) 1:26 PM CET (12/26)
Length of Visible Light 10h 12m
Length of Day
9h 09m
Last Quarter, 41% of the Moon is Illuminated
Dec 26
Last Quarter
Jan 1
New
Jan 8
First Quarter
Jan 16
Full
Jan 24
Last Quarter

Hourly Weather History & Observations

Time (CET) Temp. Windchill Dew Point Humidity Pressure Visibility Wind Dir Wind Speed Gust Speed Precip Events Conditions
7:00 AM 33 °F - 33 °F 98%  in 12 mi West 15.0 mph - -  
7:00 AM 33.8 °F 23.9 °F 32.0 °F 93% 29.83 in - West 15.0 mph - N/A   Clear
7:30 AM 33.8 °F 23.9 °F 32.0 °F 93% 29.83 in - West 15.0 mph - N/A   Clear
8:00 AM 33.8 °F 23.5 °F 33.8 °F 100% 29.86 in 6.2 mi West 16.1 mph - N/A   Scattered Clouds
8:30 AM 33.8 °F 24.3 °F 32.0 °F 93% 29.86 in 6.2 mi West 13.8 mph - N/A   Scattered Clouds
9:00 AM 32.0 °F 23.0 °F 32.0 °F 100% 29.89 in 6.2 mi West 11.5 mph - N/A   Partly Cloudy
9:30 AM 33.8 °F 24.8 °F 33.8 °F 100% 29.92 in 6.2 mi West 12.7 mph - N/A   Partly Cloudy
10:00 AM 34 °F - 34 °F 99%  in 12 mi West 16.1 mph - -   Scattered Clouds
10:00 AM 33.8 °F 23.5 °F 33.8 °F 100% 29.92 in 6.2 mi West 16.1 mph - N/A   Partly Cloudy
10:30 AM 35.6 °F 25.9 °F 35.6 °F 100% 29.95 in 6.2 mi West 16.1 mph - N/A   Partly Cloudy
11:00 AM 37.4 °F 27.8 °F 35.6 °F 93% 29.95 in 6.2 mi West 17.3 mph - N/A   Partly Cloudy
11:30 AM 39.2 °F 29.8 °F 35.6 °F 87% 29.98 in 6.2 mi West 18.4 mph - N/A   Partly Cloudy
12:00 PM 39.2 °F 29.3 °F 35.6 °F 87% 29.98 in 6.2 mi WSW 20.7 mph - N/A   Scattered Clouds
12:30 PM 41.0 °F 31.9 °F 37.4 °F 87% 29.98 in 6.2 mi WSW 19.6 mph - N/A   Scattered Clouds
1:00 PM 42 °F - 36 °F 72%  in 12 mi West 20.7 mph - -   Mostly Cloudy
1:00 PM 41.0 °F 31.6 °F 35.6 °F 81% 29.98 in 6.2 mi West 20.7 mph - N/A   Mostly Cloudy
1:30 PM 41.0 °F 31.9 °F 35.6 °F 81% 29.98 in 6.2 mi West 19.6 mph - N/A   Mostly Cloudy
2:00 PM 41.0 °F 31.9 °F 35.6 °F 81% 29.98 in 6.2 mi WSW 19.6 mph - N/A   Mostly Cloudy
2:30 PM 41.0 °F 31.1 °F 35.6 °F 81% 29.98 in 6.2 mi WSW 23.0 mph - N/A   Mostly Cloudy
3:00 PM 42.8 °F 34.3 °F 37.4 °F 81% 29.98 in 6.2 mi West 19.6 mph - N/A   Mostly Cloudy
3:30 PM 42.8 °F 34.0 °F 37.4 °F 81% 29.98 in 6.2 mi West 20.7 mph - N/A   Mostly Cloudy
4:00 PM 43 °F - 38 °F 76%  in 12 mi WSW 18.4 mph - -   Overcast
4:00 PM 42.8 °F 34.5 °F 37.4 °F 81% 29.98 in 6.2 mi WSW 18.4 mph - N/A   Mostly Cloudy
4:30 PM 42.8 °F 34.3 °F 39.2 °F 87% 29.98 in 6.2 mi West 19.6 mph - N/A   Mostly Cloudy
5:00 PM 42.8 °F 34.0 °F 39.2 °F 87% 29.98 in 6.2 mi West 20.7 mph - N/A   Mostly Cloudy
5:30 PM 42.8 °F 35.1 °F 39.2 °F 87% 29.98 in 6.2 mi WSW 16.1 mph - N/A   Mostly Cloudy
6:00 PM 41.0 °F 32.8 °F 39.2 °F 93% 29.98 in 6.2 mi WSW 16.1 mph - N/A   Overcast
6:30 PM 41.0 °F 32.5 °F 39.2 °F 93% 30.01 in 6.2 mi WSW 17.3 mph - N/A   Mostly Cloudy
7:00 PM 41 °F - 40 °F 96%  in 12 mi SW 15.0 mph - -   Overcast
7:00 PM 41.0 °F 33.1 °F 39.2 °F 93% 30.01 in 6.2 mi SW 15.0 mph - N/A   Mostly Cloudy
7:30 PM 41.0 °F 33.9 °F 41.0 °F 100% 30.01 in 5.0 mi WSW 12.7 mph - N/A   Drizzle
8:00 PM 41.0 °F 35.8 °F 41.0 °F 100% 30.01 in 6.2 mi SW 8.1 mph - N/A   Mostly Cloudy
8:30 PM 41.0 °F 35.2 °F 41.0 °F 100% 30.01 in 6.2 mi SW 9.2 mph - N/A   Overcast
9:00 PM 41.0 °F 35.2 °F 41.0 °F 100% 30.01 in 6.2 mi SW 9.2 mph - N/A   Overcast
9:30 PM 41.0 °F 33.9 °F 41.0 °F 100% 30.01 in 6.2 mi SW 12.7 mph - N/A   Overcast